User: anonymous   Login
Location: Regona
(45.2000°N, 9.8167°E)
Time: 15:39:37
(UTC+00:00)
Language:

ADEOS II - Orbit

View from above orbital plane
View from above orbital plane
View from above satellite
View from above satellite

Ground track
Ground track

The orbit data is extracted from the following two-line orbital elements,

1 27597U 02056A   20225.47260793  .00000007  00000-0  20397-4 0  9994
2 27597  98.5226 171.6606 0001359 125.6574 234.4734 14.27455472919804
Epoch (UTC): 12 August 2020 11:20:33
Eccentricity: 0.0001359
inclination: 98.5226°
perigee height: 799 km
apogee height: 801 km
right ascension of ascending node: 171.6606°
argument of perigee: 125.6574°
revolutions per day: 14.27455472
mean anomaly at epoch: 234.4734°
orbit number at epoch: 91980

The dashed part of the orbit path shows where the satellite is in the earth's shadow,  

DLR